Weather History for Bishop, CA

Change the Weather History Date:

Friday, August 9, 2013

  Actual Average Record
Temperature  
Mean Temperature 68 °F 76 °F  
Max Temperature 89 °F 98 °F 107 °F (1981)
Min Temperature 46 °F 55 °F 43 °F (1950)
Degree Days  
Heating Degree Days 0 0  
Month to date heating degree days 0 0  
Since 1 June heating degree days 0 20  
Since 1 July heating degree days 0 1  
Cooling Degree Days 3 11  
Month to date cooling degree days 73 106  
Year to date cooling degree days 944 770  
Since 1 June cooling degree days 858 702  
Growing Degree Days 18 (Base 50)    
Moisture  
Dew Point 24 °F    
Average Humidity 28    
Maximum Humidity 48    
Minimum Humidity 7    
Precipitation  
Precipitation 0.00 in 0.01 in 0.17 in (1983)
Month to date precipitation 0.00 0.04  
Year to date precipitation 0.95 3.28  
Snow  
Snow 0.00 in 0.00 in - ()
Month to date snowfall 0.0 0.0  
Since 1 June snowfall 0.0 0.0  
Since 1 July snowfall 0.0 0.0  
Snow Depth 0.00 in    
Sea Level Pressure  
Sea Level Pressure 29.81 in    
Wind  
Wind Speed 11 mph (SSE)    
Max Wind Speed 25 mph    
Max Gust Speed 32 mph    
Visibility 10 miles    
Events      
T = Trace of Precipitation, MM = Missing Value Source: NWS Daily Summary

Daily Weather History Graph

Daily Weather History Graph

Search for Another Location

Airport:

Trip Planner

Search our weather history database for the weather conditions in past years. The results will help you decide how hot, cold, wet, or windy it might be!

Date:

Astronomy

Aug. 09, 2013 Rise Set
Actual Time 6:04 AM PDT 7:52 PM PDT
Civil Twilight 5:36 AM PDT 8:20 PM PDT
Nautical Twilight 5:02 AM PDT 8:54 PM PDT
Astronomical Twilight 4:25 AM PDT 9:30 PM PDT
Moon 8:50 AM PDT (8/9) 9:10 PM PDT (8/9)
Length of Visible Light 14h 43m
Length of Day
13h 47m
Waxing Crescent, 8% of the Moon is Illuminated
Aug 9
Waxing Crescent
Aug 14
First Quarter
Aug 20
Full
Aug 28
Last Quarter
Sep 5
New

Hourly Weather History & Observations

Time (PDT) Temp. Dew Point Humidity Pressure Visibility Wind Dir Wind Speed Gust Speed Precip Events Conditions
12:56 AM 64.9 °F 25.0 °F 22% 29.79 in 10.0 mi Calm Calm - N/A   Clear
1:56 AM 57.9 °F 28.9 °F 33% 29.81 in 10.0 mi North 4.6 mph - N/A   Clear
2:56 AM 53.1 °F 27.0 °F 37% 29.82 in 10.0 mi North 3.5 mph - N/A   Clear
3:56 AM 50.0 °F 28.0 °F 43% 29.83 in 10.0 mi WNW 3.5 mph - N/A   Clear
4:56 AM 52.0 °F 30.0 °F 43% 29.83 in 10.0 mi NW 3.5 mph - N/A   Clear
5:56 AM 51.1 °F 30.0 °F 44% 29.86 in 10.0 mi Calm Calm - N/A   Clear
6:56 AM 52.0 °F 32.0 °F 47% 29.87 in 10.0 mi NW 6.9 mph - N/A   Clear
7:56 AM 62.1 °F 30.9 °F 31% 29.87 in 10.0 mi NNW 3.5 mph - N/A   Clear
8:56 AM 70.0 °F 30.0 °F 23% 29.86 in 10.0 mi Variable 3.5 mph - N/A   Clear
9:56 AM 73.0 °F 26.1 °F 17% 29.85 in 10.0 mi Variable 4.6 mph - N/A   Clear
10:56 AM 77.0 °F 26.1 °F 15% 29.83 in 10.0 mi SSE 8.1 mph - N/A   Clear
11:56 AM 82.9 °F 25.0 °F 12% 29.81 in 10.0 mi SE 9.2 mph 18.4 mph N/A   Clear
12:56 PM 86.0 °F 23.0 °F 10% 29.79 in 10.0 mi South 16.1 mph 25.3 mph N/A   Clear
1:56 PM 88.0 °F 16.0 °F 7% 29.78 in 10.0 mi South 20.7 mph 29.9 mph N/A   Clear
2:56 PM 89.1 °F 21.0 °F 8% 29.78 in 10.0 mi South 16.1 mph 27.6 mph N/A   Clear
3:56 PM 88.0 °F 21.0 °F 9% 29.78 in 10.0 mi South 18.4 mph 29.9 mph N/A   Clear
4:56 PM 89.1 °F 19.0 °F 8% 29.75 in 10.0 mi SSE 17.3 mph 25.3 mph N/A   Clear
5:56 PM 87.1 °F 18.0 °F 8% 29.76 in 10.0 mi SSE 18.4 mph 29.9 mph N/A   Clear
6:56 PM 84.9 °F 17.1 °F 8% 29.76 in 10.0 mi SSE 24.2 mph 31.1 mph N/A   Clear
7:56 PM 79.0 °F 19.9 °F 11% 29.78 in 10.0 mi SE 11.5 mph - N/A   Clear
8:56 PM 78.1 °F 18.0 °F 10% 29.80 in 10.0 mi SE 17.3 mph - N/A   Clear
9:56 PM 77.0 °F 19.0 °F 11% 29.82 in 10.0 mi SSE 18.4 mph 24.2 mph N/A   Clear
10:56 PM 75.9 °F 19.0 °F 12% 29.82 in 10.0 mi SE 16.1 mph - N/A   Clear
11:56 PM 75.0 °F 21.9 °F 14% 29.82 in 10.0 mi SE 15.0 mph - N/A   Clear